This demonstration page uses our WeatherBlox Daily Observations layout. Learn more.

Left ArrowRight Arrow

38.80484, -77.04692

Hourly Observations for December 22, 2021

Temp ( °F °C ) Dew Point ( °F °C ) Humidity (%) Winds ( mph kmh ) Pressure ( in mb ) Visibility ( mi km ) Precip ( " mm )
12:05 am 00:05 Cloudy with Mist and Fog 38 3.3 36 2.2 93 93 NNE 5 7 29.79 1009 3 5 0.00 0.00
12:11 am 00:11 Cloudy with Mist and Fog 38 3.3 35 1.7 89 89 NNE 3 6 29.78 1009 3 4 0.00 0.00
12:43 am 00:43 Cloudy with Mist and Fog 38 3.3 36 2.2 93 93 Calm 29.76 1008 3 5 0.01 0.25
12:52 am 00:52 Cloudy with Mist and Fog 38 3.3 36 2.2 93 93 Calm 29.75 1008 3 4 0.01 0.25
1:09 am 01:09 Cloudy with Mist and Fog 38 3.3 36 2.2 93 93 NNE 3 6 29.75 1008 3 5 0.01 0.25
1:41 am 01:41 Cloudy with Mist and Fog 39 3.9 36 2.2 89 89 NNW 8 13 29.74 1007 4 6 0.01 0.25
1:52 am 01:52 Cloudy with Mist and Fog 39 3.9 36 2.2 89 89 NNW 8 13 29.73 1007 4 6 0.01 0.25
2:23 am 02:23 Cloudy with Mist and Fog 39 3.9 36 2.2 89 89 NNW 5 7 29.73 1007 3 5 0.00 0.00
2:36 am 02:36 Cloudy with Mist and Fog 39 3.9 36 2.2 89 89 NNW 6 9 29.72 1007 3 4 0.00 0.00
2:52 am 02:52 Cloudy with Mist and Fog 39 3.9 36 2.2 89 89 NNW 8 13 29.72 1006 3 5 0.00 0.00
3:52 am 03:52 Cloudy with Mist and Fog 38 3.3 35 1.7 89 89 NNW 7 11 29.69 1006 6 10 0.00 0.00
4:32 am 04:32 Mostly Cloudy 38 3.3 34 1.1 86 86 WNW 6 9 29.69 1006 7 11 0.00 0.00
4:52 am 04:52 Cloudy 39 3.9 33 0.6 79 79 NNW 6 9 29.68 1005 7 11 0.00 0.00
5:52 am 05:52 Cloudy 37 2.8 33 0.6 86 86 NNW 6 9 29.67 1005 7 11 0.00 0.00
6:52 am 06:52 Mostly Cloudy 37 2.8 31 -0.6 79 79 NNW 7 11 29.68 1005 8 13 0.00 0.00
8:52 am 08:52 Partly Cloudy 40 4.4 32 0 73 73 N 7 11 29.70 1006 9 14 0.00 0.00
9:52 am 09:52 Mostly Sunny 47 8.3 33 0.6 59 59 NW 14 22 29.72 1007 10 16 0.00 0.00
10:52 am 10:52 Mostly Sunny 49 9.4 31 -0.6 50 50 NW 12 19 29.73 1007 10 16 0.00 0.00
11:52 am 11:52 Mostly Cloudy 50 10 28 -2.2 43 43 NW 15 24 29.72 1007 10 16 0.00 0.00
12:52 pm 12:52 Mostly Sunny 51 10.6 26 -3.3 38 38 NW 12 19 29.73 1007 10 16 0.00 0.00
1:52 pm 13:52 Mostly Sunny 50 10 22 -5.6 33 33 WNW 23 37 29.75 1007 10 16 0.00 0.00
2:52 pm 14:52 Mostly Sunny 50 10 20 -6.7 30 30 NW 17 28 29.77 1008 10 16 0.00 0.00
3:52 pm 15:52 Mostly Sunny 47 8.3 20 -6.7 34 34 NW 21 33 29.81 1010 10 16 0.00 0.00
4:52 pm 16:52 Mostly Clear 44 6.7 16 -8.9 32 32 NW 14 22 29.86 1011 10 16 0.00 0.00
5:52 pm 17:52 Mostly Clear 42 5.6 16 -8.9 35 35 N 14 22 29.89 1012 10 16 0.00 0.00
6:52 pm 18:52 Clear 40 4.4 15 -9.4 36 36 NNW 8 13 29.95 1014 10 16 0.00 0.00
7:52 pm 19:52 Clear 39 3.9 15 -9.4 38 38 NNW 17 28 29.99 1016 10 16 0.00 0.00
8:52 pm 20:52 Clear 37 2.8 15 -9.4 41 41 N 16 26 30.02 1017 10 16 0.00 0.00
9:52 pm 21:52 Clear 37 2.8 15 -9.4 41 41 NNW 14 22 30.05 1018 10 16 0.00 0.00
10:52 pm 22:52 Clear 35 1.7 15 -9.4 44 44 NNW 13 20 30.08 1019 10 16 0.00 0.00
11:52 pm 23:52 Clear 34 1.1 15 -9.4 46 46 NW 10 17 30.10 1019 10 16 0.00 0.00

Powered by AerisWeather